Regional Weather Roundup
Issued by NWS State College, PA

Home | Current Version | Previous Version | Text Only | Print | Product List | Glossary Off
Versions: 1 2 3 4 5 6 7 8 9 10 11 12 13 14 15 16 17 18 19 20 21 22 23 24 25 26 27 28 29 30 31 32 33 34 35 36 37 38 39 40 41 42 43 44 45 46 47 48 49 50

000
ASUS41 KCTP 281303
RWRCTP

REGIONAL WEATHER ROUNDUP
NATIONAL WEATHER SERVICE STATE COLLEGE PA
800 AM EST WED JAN 28 2015

Note: "fair" indicates few or no clouds below 12,000 feet with no
significant weather and/or obstructions to visibility.

* = STATION THAT DOES NOT REPORT PRECIPITATION /E.G. RAIN...SNOW...ETC/
    THUNDER OR FOG.

PAZ002>004-007>009-013>016-020>023-029>032-281400-
WESTERN PENNSYLVANIA

CITY           SKY/WX    TMP DP  RH WIND       PRES   REMARKS
ERIE           PTCLDY     3  -2  79 S6        30.30R WCI  -8
MEADVILLE      MOCLDY     5   0  79 W5        30.23R HAZE    WCI  -4
FRANKLIN*      MOCLDY     5   0  78 W3        30.23R
NEW CASTLE     FAIR      -4  -8  83 CALM      30.30R
BEAVER COUNTY  CLEAR      9   5  85 W3        30.26R
BUTLER*        CLOUDY    12   9  85 SW7       30.27R WCI   2
PITTSBURGH INT PTCLDY    10   8  92 SW3       30.27R
PITTSBURGH     CLOUDY    13   7  77 W6        30.27R FOG     WCI   4
INDIANA*       CLOUDY     7   5  92 CALM      30.29R FOG
LATROBE        FLURRIES  10  10 100 W9        30.30R WCI  -2
WASHINGTON CO* MOCLDY     9   5  85 MISG      30.29R
$$

PAZ004>006-010>012-017>019-024>028-033>037-041-042-045-046-049>053-281400-
CENTRAL PENNSYLVANIA

CITY           SKY/WX    TMP DP  RH WIND       PRES   REMARKS
BRADFORD       PTCLDY     3  -2  79 NW5       30.12R WCI  -6
DUBOIS         CLOUDY     9   5  84 W10       30.17R FOG     WCI  -5
CLEARFIELD     CLOUDY    10   5  80 SW7       30.19R WCI  -1
JOHNSTOWN      LGT SNOW   9   5  84 W10       30.13R FOG     WCI  -5
ALTOONA        CLEAR     11   5  77 VRB3      30.18R
STATE COLLEGE  PTCLDY    10   5  79 W9        30.19R WCI  -2
WILLIAMSPORT   CLEAR     12   2  64 W17       30.18R WCI  -5
SELINSGROVE    CLEAR     16   1  51 NW7       30.19R WCI   6
FT INDIANTOWN  CLEAR     18  -1  42 NW8G18    30.15R WCI   8
CAPITAL CITY   CLEAR     19   1  45 W13       30.17R WCI   6
HARRISBURG     CLEAR     19   3  49 NW15      30.16R WCI   5
YORK           CLEAR     12   1  61 NW6       30.15R WCI   3
$$

PAZ038>040-043-044-047-048-054-055-060>062-067>071-281400-
EASTERN PENNSYLVANIA

CITY           SKY/WX    TMP DP  RH WIND       PRES   REMARKS
SCRANTON       PTCLDY    12   0  58 NW9       30.09R WCI   0
MOUNT POCONO   CLEAR      9   1  70 NW23G37   29.89R WCI -11
ALLENTOWN      CLEAR     17   0  47 NW9G17    30.08R WCI   6
QUAKERTOWN*    NOT AVBL
READING        CLEAR     18   0  45 NW15G23   30.12R WCI   4
LANCASTER      CLEAR     17   0  47 NW16      30.13R WCI   2
COATESVILLE    SUNNY     18   1  49 NW16G28   30.08R WCI   3
POTTSTOWN      CLEAR     16  -1  47 NW8       30.10R WCI   5
BLUE BELL      CLEAR     19   1  45 NW3       30.07R
DOYLESTOWN     CLEAR     15  -1  49 NW8       30.06R WCI   4
WILLOW GROVE   NOT AVBL
NORTH PHILA    CLEAR     20  -3  36 NW13      30.09R WCI   7
PHILADELPHIA   PTCLDY    20  -1  40 NW16G23   30.10R WCI   6
$$


USA.gov is the U.S. government's official web portal to all federal, state and local government web resources and services.